Simultaneous Nadir Overpasses (SNOs) Predictions

Prediction of SNOs between LANDSAT-8 and NPP Satellite Orbit:

Table of predicted SNOs for the next 14.0 days since TLE Epoch: 9/13/2014
Index Date (LANDSAT-8) Time (LANDSAT-8) Lat,Lon (LANDSAT-8) SZA (LANDSAT-8 ) Date (NPP) Time (NPP) Lat,Lon (NPP) SZA (NPP ) Distance(km) Time Diff (sec)
1 09/13/2014 17:28:42 70.80, -84.71 67.08 09/13/2014 17:28:11 70.80, -84.78 67.08 2.66 31
2 09/13/2014 18:18:12 -70.69, 82.76 113.03 09/13/2014 18:18:52 -70.68, 82.74 113.04 1.48 40
3 09/16/2014 08:55:40 -71.11,-135.99 111.61 09/16/2014 08:54:28 -71.16,-136.92 111.55 34.01 72
4 09/16/2014 09:45:12 70.73, 31.07 68.04 09/16/2014 09:45:06 70.72, 31.13 68.02 2.78 6
5 09/16/2014 10:34:42 -70.62,-161.46 112.07 09/16/2014 10:35:48 -70.64,-161.43 112.05 2.40 66
6 09/19/2014 01:12:14 -70.81, -20.58 110.87 09/19/2014 01:11:18 -70.82, -20.57 110.86 0.87 56
7 09/19/2014 02:01:41 70.70, 146.91 69.04 09/19/2014 02:02:02 70.69, 146.94 69.03 2.06 21
8 09/19/2014 02:51:24 -69.88, -46.65 111.76 09/19/2014 02:52:31 -69.93, -44.54 111.73 80.62 67
9 09/21/2014 17:28:43 -70.76, 95.24 109.88 09/21/2014 17:28:14 -70.79, 95.24 109.85 2.77 29
10 09/21/2014 18:18:10 70.66, -97.28 70.03 09/21/2014 18:18:58 70.66, -97.24 70.04 1.56 48
11 09/24/2014 08:55:40 70.86, 43.64 71.25 09/24/2014 08:54:27 70.85, 43.60 71.24 2.18 73
12 09/24/2014 09:45:10 -70.75,-148.89 108.85 09/24/2014 09:45:09 -70.76,-148.94 108.84 2.04 1
13 09/24/2014 10:34:39 70.53, 18.43
